IRIDIUM 142 (43256 NORAD) Tracking and Keplerian Element Data

This shows tracking and keplerian element data for the satellite.

Feedback or suggestion? Click here.




ElementValue
Catalog43256
NameIRIDIUM 142
Epoch Orbit420
Epoch Day118.52933842
Epoch Year2018
RAAN92.3084
Inclination86.3943
Eccentricity0.0002188
Argument of Perigee89.6436
Mean Anonmoly270.501
Mean Motion14.34218216
Decay Rate5.4E-07
L11 43256U 18030H 18118.52933842 .00000054 00000-0 12386-4 0 9990
L22 43256 86.3943 92.3084 0002188 89.6436 270.5010 14.34218216 4209

Live tracking and technical data element details for IRIDIUM 142 (NORAD 43256). IRIDIUM 142 can be tracked NOW for your location showing map with azimuth and elevation plus other details from your city location.

Track the satellite on the map from your city or location and see movement details for azimuth, elevation, latitude, longitude, range, height, and movement on the map or in text.







IsCatalogInMostPopularTable: catalog: 43256, numindb: 60
Update: records affected: 1



GetName: 43256 IRIDIUM 142

Hit Count: updated at: Sat, 17 Nov 2018 03:26:47 GMT